Station Historical Data
Daily Summary for October 5, 2017 Units:  Metric    English   Both
« Previous Day
Next Day »
Daily Weekly Monthly Yearly Custom
  High: Low: Average:
Temperature: 26.6 °C 12.6 °C 18.9 °C
Dew Point: 15.9 °C 10.8 °C 13.7 °C
Humidity: 90% 45% 73%
Wind Speed: 14.5km/h 0km/h 5.6km/h
Wind Gust: 14.5km/h - -
Wind- - East
Pressure: 1026.6 hPa 1020.5 hPa -
Precipitation: 0 mm    
Historical Graphs
 
 
Tabular Data for October 5, 2017
Time Temperature Dew Point Pressure Wind Wind Speed Wind Gust Humidity Rainfall Rate (Hourly) solar Conditions
00:00 15.4 °C 12.9 °C 1026.6 hPa Calm     85% 0 mm WeatherDisplay:10.37 W/m2 CLR
00:05 15.3 °C 12.8 °C 1026.6 hPa Calm     85% 0 mm WeatherDisplay:10.37 W/m2 CLR
00:10 15.2 °C 12.7 °C 1026.6 hPa Calm     85% 0 mm WeatherDisplay:10.37 W/m2 CLR
00:15 15.2 °C 12.7 °C 1026.6 hPa Calm     85% 0 mm WeatherDisplay:10.37 W/m2 CLR
00:20 15.2 °C 12.8 °C 1026.6 hPa Calm     86% 0 mm WeatherDisplay:10.37 W/m2 CLR
00:25 15.1 °C 12.8 °C 1026.6 hPa Calm     86% 0 mm WeatherDisplay:10.37 W/m2 CLR
00:30 15.1 °C 12.7 °C 1026.6 hPa Calm     86% 0 mm WeatherDisplay:10.37 W/m2 CLR
00:40 14.9 °C 12.7 °C 1026.6 hPa Calm     86% 0 mm WeatherDisplay:10.37 W/m2 CLR
00:45 14.9 °C 12.6 °C 1026.3 hPa Calm     86% 0 mm WeatherDisplay:10.37 W/m2 CLR
00:50 14.9 °C 12.6 °C 1026.3 hPa Calm     86% 0 mm WeatherDisplay:10.37 W/m2 CLR
00:55 14.8 °C 12.5 °C 1026.3 hPa Calm     86% 0 mm WeatherDisplay:10.37 W/m2 CLR
01:00 14.8 °C 12.4 °C 1026.3 hPa Calm     86% 0 mm WeatherDisplay:10.37 W/m2 CLR
01:05 14.8 °C 12.4 °C 1026.3 hPa Calm     86% 0 mm WeatherDisplay:10.37 W/m2 CLR
01:10 14.7 °C 12.4 °C 1026 hPa Calm     86% 0 mm WeatherDisplay:10.37 W/m2 CLR
01:15 14.7 °C 12.3 °C 1026 hPa Calm     86% 0 mm WeatherDisplay:10.37 W/m2 CLR
01:25 14.6 °C 12.2 °C 1026 hPa Calm     86% 0 mm WeatherDisplay:10.37 W/m2 CLR
01:30 14.5 °C 12.2 °C 1026 hPa Calm     86% 0 mm WeatherDisplay:10.37 W/m2 CLR
01:35 14.5 °C 12.3 °C 1026 hPa Calm     87% 0 mm WeatherDisplay:10.37 W/m2 CLR
01:40 14.4 °C 12.3 °C 1025.6 hPa Calm     87% 0 mm WeatherDisplay:10.37 W/m2 CLR
01:45 14.4 °C 12.3 °C 1025.6 hPa Calm     87% 0 mm WeatherDisplay:10.37 W/m2 CLR
01:50 14.4 °C 12.3 °C 1025.6 hPa Calm     87% 0 mm WeatherDisplay:10.37 W/m2 CLR
01:55 14.4 °C 12.3 °C 1025.6 hPa Calm     87% 0 mm WeatherDisplay:10.37 W/m2 CLR
02:00 14.4 °C 12.3 °C 1025.6 hPa Calm     87% 0 mm WeatherDisplay:10.37 W/m2 CLR
02:05 14.4 °C 12.3 °C 1025.6 hPa Calm     87% 0 mm WeatherDisplay:10.37 W/m2 CLR
02:10 14.4 °C 12.3 °C 1025.6 hPa Calm     87% 0 mm WeatherDisplay:10.37 W/m2 CLR
02:15 14.3 °C 12.2 °C 1025.6 hPa Calm     87% 0 mm WeatherDisplay:10.37 W/m2 FEW
02:20 14.2 °C 12.1 °C 1025.6 hPa Calm     87% 0 mm WeatherDisplay:10.37 W/m2 FEW
02:25 14.1 °C 12 °C 1025.3 hPa Calm     87% 0 mm WeatherDisplay:10.37 W/m2 FEW
02:30 14.1 °C 11.9 °C 1025.3 hPa Calm     87% 0 mm WeatherDisplay:10.37 W/m2 FEW
02:45 13.9 °C 12 °C 1024.9 hPa Calm     88% 0 mm WeatherDisplay:10.37 W/m2 FEW
02:50 13.9 °C 11.9 °C 1024.9 hPa Calm     88% 0 mm WeatherDisplay:10.37 W/m2 FEW
02:55 13.8 °C 11.9 °C 1024.9 hPa Calm     88% 0 mm WeatherDisplay:10.37 W/m2 FEW
03:00 13.8 °C 11.9 °C 1024.9 hPa Calm     88% 0 mm WeatherDisplay:10.37 W/m2 FEW
03:05 13.8 °C 11.9 °C 1024.9 hPa Calm     88% 0 mm WeatherDisplay:10.37 W/m2 FEW
03:10 13.9 °C 11.9 °C 1024.9 hPa Calm     88% 0 mm WeatherDisplay:10.37 W/m2 FEW
03:15 13.9 °C 11.9 °C 1024.9 hPa East 1.6 km/h 1.6 km/h 88% 0 mm WeatherDisplay:10.37 W/m2 FEW
03:20 13.8 °C 11.9 °C 1024.9 hPa ESE 1.6 km/h 1.6 km/h 88% 0 mm WeatherDisplay:10.37 W/m2 FEW
03:25 13.8 °C 11.9 °C 1024.9 hPa ESE 1.6 km/h 1.6 km/h 88% 0 mm WeatherDisplay:10.37 W/m2 FEW
03:30 13.9 °C 11.9 °C 1024.9 hPa ESE 1.6 km/h 1.6 km/h 88% 0 mm WeatherDisplay:10.37 W/m2 FEW
03:40 13.7 °C 11.8 °C 1024.9 hPa ESE 1.6 km/h 1.6 km/h 88% 0 mm WeatherDisplay:10.37 W/m2 FEW
03:45 13.7 °C 11.7 °C 1024.9 hPa ESE 1.6 km/h 1.6 km/h 88% 0 mm WeatherDisplay:10.37 W/m2 FEW
03:50 13.6 °C 11.7 °C 1024.9 hPa ESE 1.6 km/h 1.6 km/h 88% 0 mm WeatherDisplay:10.37 W/m2 FEW
03:55 13.6 °C 11.6 °C 1024.9 hPa ESE 1.6 km/h 1.6 km/h 88% 0 mm WeatherDisplay:10.37 W/m2 FEW
04:00 13.5 °C 11.6 °C 1024.9 hPa ESE 1.6 km/h 1.6 km/h 88% 0 mm WeatherDisplay:10.37 W/m2 FEW
04:05 13.4 °C 11.7 °C 1024.9 hPa ESE 1.6 km/h 1.6 km/h 89% 0 mm WeatherDisplay:10.37 W/m2 FEW
04:10 13.4 °C 11.6 °C 1024.9 hPa ESE 1.6 km/h 1.6 km/h 89% 0 mm WeatherDisplay:10.37 W/m2 FEW
04:15 13.4 °C 11.7 °C 1024.9 hPa ENE 4.8 km/h 4.8 km/h 89% 0 mm WeatherDisplay:10.37 W/m2 FEW
04:20 13.4 °C 11.7 °C 1024.9 hPa ENE 4.8 km/h 4.8 km/h 89% 0 mm WeatherDisplay:10.37 W/m2 FEW
04:25 13.5 °C 11.7 °C 1024.9 hPa ENE 4.8 km/h 4.8 km/h 89% 0 mm WeatherDisplay:10.37 W/m2 FEW
04:30 13.5 °C 11.7 °C 1024.9 hPa ENE 4.8 km/h 4.8 km/h 89% 0 mm WeatherDisplay:10.37 W/m2 FEW
04:35 13.5 °C 11.7 °C 1024.9 hPa ENE 4.8 km/h 4.8 km/h 89% 0 mm WeatherDisplay:10.37 W/m2 FEW
04:40 13.5 °C 11.7 °C 1024.9 hPa ENE 4.8 km/h 4.8 km/h 89% 0 mm WeatherDisplay:10.37 W/m2 FEW
04:50 13.4 °C 11.4 °C 1024.9 hPa ENE 4.8 km/h 4.8 km/h 88% 0 mm WeatherDisplay:10.37 W/m2 FEW
04:55 13.3 °C 11.6 °C 1024.9 hPa ENE 4.8 km/h 4.8 km/h 89% 0 mm WeatherDisplay:10.37 W/m2 FEW
05:00 13.3 °C 11.5 °C 1024.9 hPa ENE 4.8 km/h 4.8 km/h 89% 0 mm WeatherDisplay:10.37 W/m2 FEW
05:05 13.3 °C 11.5 °C 1024.9 hPa ENE 4.8 km/h 4.8 km/h 89% 0 mm WeatherDisplay:10.37 W/m2 FEW
05:10 13.3 °C 11.5 °C 1024.9 hPa ENE 4.8 km/h 4.8 km/h 89% 0 mm WeatherDisplay:10.37 W/m2 FEW
05:15 13.3 °C 11.5 °C 1024.9 hPa ENE 3.2 km/h 4.8 km/h 89% 0 mm WeatherDisplay:10.37 W/m2 FEW
05:25 13.3 °C 11.5 °C 1024.9 hPa East 3.2 km/h 3.2 km/h 89% 0 mm WeatherDisplay:10.37 W/m2 FEW
05:30 13.4 °C 11.6 °C 1024.9 hPa East 3.2 km/h 3.2 km/h 89% 0 mm WeatherDisplay:10.37 W/m2 FEW
05:40 13.3 °C 11.4 °C 1024.6 hPa East 3.2 km/h 3.2 km/h 88% 0 mm WeatherDisplay:10.37 W/m2 FEW
05:45 13.3 °C 11.3 °C 1024.6 hPa East 3.2 km/h 3.2 km/h 88% 0 mm WeatherDisplay:10.37 W/m2 FEW
05:50 13.2 °C 11.3 °C 1024.6 hPa East 3.2 km/h 3.2 km/h 88% 0 mm WeatherDisplay:10.37 W/m2 FEW
05:55 13.1 °C 11.3 °C 1024.9 hPa East 3.2 km/h 3.2 km/h 89% 0 mm WeatherDisplay:10.37 W/m2 FEW
06:00 13.1 °C 11.3 °C 1024.6 hPa East 3.2 km/h 3.2 km/h 89% 0 mm WeatherDisplay:10.37 W/m2 FEW
06:05 13 °C 11.2 °C 1024.6 hPa East 3.2 km/h 3.2 km/h 89% 0 mm WeatherDisplay:10.37 W/m2 FEW
06:10 12.9 °C 11.2 °C 1024.6 hPa East 3.2 km/h 3.2 km/h 89% 0 mm WeatherDisplay:10.37 W/m2 FEW
06:20 12.8 °C 11.1 °C 1024.6 hPa East 3.2 km/h 3.2 km/h 89% 0 mm WeatherDisplay:10.37 W/m2 FEW
06:25 12.7 °C 10.9 °C 1024.9 hPa East 3.2 km/h 3.2 km/h 89% 0 mm WeatherDisplay:10.37 W/m2 FEW
06:30 12.7 °C 10.9 °C 1024.9 hPa East 3.2 km/h 3.2 km/h 89% 0 mm WeatherDisplay:10.37 W/m2 FEW
06:35 12.7 °C 11.1 °C 1024.9 hPa East 3.2 km/h 3.2 km/h 90% 0 mm WeatherDisplay:10.37 W/m2 FEW
06:40 12.7 °C 11.1 °C 1024.9 hPa East 3.2 km/h 3.2 km/h 90% 0 mm WeatherDisplay:10.37 W/m2 FEW
06:45 12.7 °C 11.1 °C 1024.9 hPa East 3.2 km/h 3.2 km/h 90% 0 mm WeatherDisplay:10.37 W/m2 FEW
06:55 12.7 °C 11.1 °C 1024.9 hPa East 3.2 km/h 3.2 km/h 90% 0 mm WeatherDisplay:10.37 W/m2 FEW
07:00 12.7 °C 11.1 °C 1024.9 hPa East 3.2 km/h 3.2 km/h 90% 0 mm WeatherDisplay:10.37 W/m2 FEW
07:05 12.8 °C 11.2 °C 1024.9 hPa East 3.2 km/h 3.2 km/h 90% 0 mm WeatherDisplay:10.37 W/m2 FEW
07:10 12.8 °C 11.2 °C 1024.9 hPa East 3.2 km/h 3.2 km/h 90% 0 mm WeatherDisplay:10.37 W/m2 FEW
07:15 12.8 °C 11.2 °C 1024.9 hPa East 1.6 km/h 3.2 km/h 90% 0 mm WeatherDisplay:10.37 W/m2 FEW
07:20 12.9 °C 11.2 °C 1024.9 hPa East 1.6 km/h 1.6 km/h 89% 0 mm WeatherDisplay:10.37 W/m2 FEW
07:25 12.9 °C 11.2 °C 1025.3 hPa East 1.6 km/h 1.6 km/h 89% 0 mm WeatherDisplay:10.37 W/m2 FEW
07:30 12.9 °C 11.1 °C 1025.3 hPa East 1.6 km/h 1.6 km/h 89% 0 mm WeatherDisplay:10.37 W/m2 FEW
07:50 12.7 °C 10.9 °C 1025.3 hPa East 1.6 km/h 1.6 km/h 89% 0 mm WeatherDisplay:10.37 W/m2 FEW
07:55 12.6 °C 10.8 °C 1024.9 hPa East 1.6 km/h 1.6 km/h 89% 0 mm WeatherDisplay:10.37 W/m2 FEW
08:00 12.6 °C 10.8 °C 1024.9 hPa East 1.6 km/h 1.6 km/h 89% 0 mm WeatherDisplay:10.37 W/m2 FEW
08:05 12.6 °C 11 °C 1025.3 hPa East 1.6 km/h 1.6 km/h 90% 0 mm WeatherDisplay:10.37 W/m2 FEW
08:10 12.6 °C 11 °C 1025.3 hPa East 1.6 km/h 1.6 km/h 90% 0 mm WeatherDisplay:10.37 W/m2 FEW
08:15 12.7 °C 11.1 °C 1024.9 hPa East 4.8 km/h 4.8 km/h 90% 0 mm WeatherDisplay:10.37 W/m2 CLR
08:20 12.9 °C 11.3 °C 1024.9 hPa East 4.8 km/h 4.8 km/h 90% 0 mm WeatherDisplay:10.37 W/m2 CLR
08:25 13.1 °C 11.4 °C 1025.3 hPa East 4.8 km/h 4.8 km/h 90% 0 mm WeatherDisplay:10.37 W/m2 CLR
08:30 13.3 °C 11.5 °C 1025.3 hPa East 4.8 km/h 4.8 km/h 89% 0 mm WeatherDisplay:10.37 W/m2 CLR
08:40 14.1 °C 11.9 °C 1025.6 hPa East 4.8 km/h 4.8 km/h 87% 0 mm WeatherDisplay:10.37 W/m2 CLR
08:45 14.3 °C 12 °C 1025.6 hPa East 4.8 km/h 4.8 km/h 86% 0 mm WeatherDisplay:10.37 W/m2 CLR
08:50 14.5 °C 12.2 °C 1025.3 hPa East 4.8 km/h 4.8 km/h 86% 0 mm WeatherDisplay:10.37 W/m2 CLR
08:55 14.7 °C 12.3 °C 1025.6 hPa East 4.8 km/h 4.8 km/h 86% 0 mm WeatherDisplay:10.37 W/m2 CLR
09:00 14.8 °C 12.3 °C 1025.6 hPa East 4.8 km/h 4.8 km/h 85% 0 mm WeatherDisplay:10.37 W/m2 CLR
09:05 15.2 °C 12.3 °C 1025.6 hPa East 4.8 km/h 4.8 km/h 83% 0 mm WeatherDisplay:10.37 W/m2 CLR
09:10 15.5 °C 12.4 °C 1025.6 hPa East 4.8 km/h 4.8 km/h 82% 0 mm WeatherDisplay:10.37 W/m2 CLR
09:20 16.3 °C 12.7 °C 1025.6 hPa ESE 4.8 km/h 4.8 km/h 79% 0 mm WeatherDisplay:10.37 W/m2 CLR
09:25 16.7 °C 12.6 °C 1025.6 hPa ESE 4.8 km/h 4.8 km/h 77% 0 mm WeatherDisplay:10.37 W/m2 CLR
09:30 17 °C 12.9 °C 1025.6 hPa ESE 4.8 km/h 4.8 km/h 77% 0 mm WeatherDisplay:10.37 W/m2 CLR
09:35 17.3 °C 12.8 °C 1025.6 hPa ESE 4.8 km/h 4.8 km/h 75% 0 mm WeatherDisplay:10.37 W/m2 CLR
09:40 17.6 °C 13.1 °C 1025.6 hPa ESE 4.8 km/h 4.8 km/h 75% 0 mm WeatherDisplay:10.37 W/m2 CLR
09:45 17.8 °C 13.1 °C 1025.6 hPa ESE 4.8 km/h 4.8 km/h 74% 0 mm WeatherDisplay:10.37 W/m2 CLR
09:55 18.3 °C 13.4 °C 1025.6 hPa ESE 4.8 km/h 4.8 km/h 73% 0 mm WeatherDisplay:10.37 W/m2 CLR
10:00 18.5 °C 13.1 °C 1025.6 hPa ESE 4.8 km/h 4.8 km/h 71% 0 mm WeatherDisplay:10.37 W/m2 CLR
10:05 18.7 °C 13.5 °C 1025.3 hPa ESE 4.8 km/h 4.8 km/h 72% 0 mm WeatherDisplay:10.37 W/m2 CLR
10:10 18.9 °C 13.5 °C 1025.3 hPa ESE 4.8 km/h 4.8 km/h 71% 0 mm WeatherDisplay:10.37 W/m2 CLR
10:15 19.1 °C 13.9 °C 1025.3 hPa ESE 4.8 km/h 4.8 km/h 72% 0 mm WeatherDisplay:10.37 W/m2 CLR
10:20 19.3 °C 14.1 °C 1025.3 hPa East 4.8 km/h 4.8 km/h 72% 0 mm WeatherDisplay:10.37 W/m2 CLR
10:25 19.6 °C 14.1 °C 1025.3 hPa East 4.8 km/h 4.8 km/h 71% 0 mm WeatherDisplay:10.37 W/m2 CLR
10:30 19.8 °C 14.2 °C 1025.3 hPa East 4.8 km/h 4.8 km/h 70% 0 mm WeatherDisplay:10.37 W/m2 CLR
10:35 20.1 °C 14.4 °C 1025.3 hPa East 4.8 km/h 4.8 km/h 70% 0 mm WeatherDisplay:10.37 W/m2 CLR
10:40 20.4 °C 14.8 °C 1025.3 hPa East 4.8 km/h 4.8 km/h 70% 0 mm WeatherDisplay:10.37 W/m2 CLR
10:45 20.6 °C 14.7 °C 1025.3 hPa East 4.8 km/h 4.8 km/h 69% 0 mm WeatherDisplay:10.37 W/m2 CLR
10:50 20.9 °C 14.8 °C 1025.3 hPa East 4.8 km/h 4.8 km/h 68% 0 mm WeatherDisplay:10.37 W/m2 CLR
10:55 21.3 °C 15.1 °C 1025.3 hPa East 4.8 km/h 4.8 km/h 68% 0 mm WeatherDisplay:10.37 W/m2 CLR
11:00 21.6 °C 15.2 °C 1025.3 hPa East 4.8 km/h 4.8 km/h 67% 0 mm WeatherDisplay:10.37 W/m2 CLR
11:05 22 °C 15.4 °C 1025.3 hPa East 4.8 km/h 4.8 km/h 66% 0 mm WeatherDisplay:10.37 W/m2 CLR
11:10 22.5 °C 15.3 °C 1025.3 hPa East 4.8 km/h 4.8 km/h 64% 0 mm WeatherDisplay:10.37 W/m2 CLR
11:20 23.1 °C 15.3 °C 1024.9 hPa ESE 9.7 km/h 9.7 km/h 62% 0 mm WeatherDisplay:10.37 W/m2 CLR
11:25 23.4 °C 15.4 °C 1024.9 hPa ESE 9.7 km/h 9.7 km/h 61% 0 mm WeatherDisplay:10.37 W/m2 CLR
11:30 23.4 °C 15.7 °C 1024.9 hPa ESE 9.7 km/h 9.7 km/h 62% 0 mm WeatherDisplay:10.37 W/m2 CLR
11:40 24.1 °C 15.6 °C 1024.9 hPa ESE 9.7 km/h 9.7 km/h 59% 0 mm WeatherDisplay:10.37 W/m2 CLR
11:45 23.9 °C 15.7 °C 1024.9 hPa ESE 9.7 km/h 9.7 km/h 60% 0 mm WeatherDisplay:10.37 W/m2 CLR
11:55 24.1 °C 15.6 °C 1024.6 hPa ESE 9.7 km/h 9.7 km/h 59% 0 mm WeatherDisplay:10.37 W/m2 CLR
12:00 24.2 °C 15.4 °C 1024.6 hPa ESE 9.7 km/h 9.7 km/h 58% 0 mm WeatherDisplay:10.37 W/m2 CLR
12:10 24.6 °C 15.8 °C 1024.6 hPa ESE 9.7 km/h 9.7 km/h 58% 0 mm WeatherDisplay:10.37 W/m2 CLR
12:15 24.6 °C 15.5 °C 1024.6 hPa East 9.7 km/h 9.7 km/h 57% 0 mm WeatherDisplay:10.37 W/m2 FEW
12:25 24.3 °C 15.6 °C 1024.6 hPa North 9.7 km/h 9.7 km/h 58% 0 mm WeatherDisplay:10.37 W/m2 FEW
12:30 24.7 °C 15.6 °C 1024.3 hPa West 9.7 km/h 9.7 km/h 57% 0 mm WeatherDisplay:10.37 W/m2 FEW
12:35 24.6 °C 15.2 °C 1024.3 hPa West 9.7 km/h 9.7 km/h 56% 0 mm WeatherDisplay:10.37 W/m2 FEW
12:45 24.8 °C 15.9 °C 1024.3 hPa NE 9.7 km/h 9.7 km/h 58% 0 mm WeatherDisplay:10.37 W/m2 FEW
12:55 24.4 °C 15.1 °C 1023.9 hPa North 9.7 km/h 9.7 km/h 56% 0 mm WeatherDisplay:10.37 W/m2 FEW
13:00 24.3 °C 15.8 °C 1023.9 hPa WNW 9.7 km/h 9.7 km/h 59% 0 mm WeatherDisplay:10.37 W/m2 FEW
13:05 24.4 °C 15.7 °C 1023.9 hPa WNW 9.7 km/h 9.7 km/h 58% 0 mm WeatherDisplay:10.37 W/m2 FEW
13:10 24.5 °C 15.7 °C 1023.6 hPa WNW 9.7 km/h 9.7 km/h 58% 0 mm WeatherDisplay:10.37 W/m2 FEW
13:15 24.6 °C 15.7 °C 1023.6 hPa NNE 12.9 km/h 12.9 km/h 58% 0 mm WeatherDisplay:10.37 W/m2 FEW
13:20 24.7 °C 15.7 °C 1023.6 hPa ENE 12.9 km/h 12.9 km/h 57% 0 mm WeatherDisplay:10.37 W/m2 FEW
13:25 24.8 °C 15.7 °C 1023.6 hPa ENE 12.9 km/h 12.9 km/h 57% 0 mm WeatherDisplay:10.37 W/m2 FEW
13:30 24.8 °C 15.7 °C 1023.2 hPa ENE 12.9 km/h 12.9 km/h 57% 0 mm WeatherDisplay:10.37 W/m2 FEW
13:35 24.8 °C 14.9 °C 1023.2 hPa ENE 12.9 km/h 12.9 km/h 54% 0 mm WeatherDisplay:10.37 W/m2 FEW
13:40 25 °C 15.6 °C 1023.2 hPa ENE 12.9 km/h 12.9 km/h 56% 0 mm WeatherDisplay:10.37 W/m2 FEW
13:45 25.2 °C 15.3 °C 1023.2 hPa ENE 12.9 km/h 12.9 km/h 54% 0 mm WeatherDisplay:10.37 W/m2 FEW
13:50 25.6 °C 15.6 °C 1023.2 hPa ENE 12.9 km/h 12.9 km/h 54% 0 mm WeatherDisplay:10.37 W/m2 FEW
13:55 25.7 °C 15.1 °C 1022.9 hPa ENE 12.9 km/h 12.9 km/h 52% 0 mm WeatherDisplay:10.37 W/m2 FEW
14:00 25.7 °C 14.8 °C 1022.6 hPa ENE 12.9 km/h 12.9 km/h 51% 0 mm WeatherDisplay:10.37 W/m2 FEW
14:05 26.1 °C 15.2 °C 1022.6 hPa ENE 12.9 km/h 12.9 km/h 51% 0 mm WeatherDisplay:10.37 W/m2 FEW
14:10 26.2 °C 15.2 °C 1022.6 hPa ENE 12.9 km/h 12.9 km/h 51% 0 mm WeatherDisplay:10.37 W/m2 FEW
14:15 26.3 °C 14.4 °C 1022.6 hPa East 14.5 km/h 14.5 km/h 48% 0 mm WeatherDisplay:10.37 W/m2 FEW
14:20 26.3 °C 14.8 °C 1022.6 hPa ESE 14.5 km/h 14.5 km/h 49% 0 mm WeatherDisplay:10.37 W/m2 FEW
14:30 26.6 °C 15 °C 1022.2 hPa ESE 14.5 km/h 14.5 km/h 49% 0 mm WeatherDisplay:10.37 W/m2 FEW
14:35 26.5 °C 13.6 °C 1022.2 hPa ESE 14.5 km/h 14.5 km/h 45% 0 mm WeatherDisplay:10.37 W/m2 FEW
14:40 26.3 °C 13.8 °C 1022.2 hPa ESE 14.5 km/h 14.5 km/h 46% 0 mm WeatherDisplay:10.37 W/m2 FEW
14:45 26.4 °C 14.5 °C 1021.9 hPa ESE 14.5 km/h 14.5 km/h 48% 0 mm WeatherDisplay:10.37 W/m2 FEW
14:50 26.5 °C 14.3 °C 1021.9 hPa ESE 14.5 km/h 14.5 km/h 47% 0 mm WeatherDisplay:10.37 W/m2 FEW
15:00 26.3 °C 15.1 °C 1021.9 hPa ESE 14.5 km/h 14.5 km/h 50% 0 mm WeatherDisplay:10.37 W/m2 FEW
15:05 26.4 °C 14.2 °C 1021.9 hPa ESE 14.5 km/h 14.5 km/h 47% 0 mm WeatherDisplay:10.37 W/m2 FEW
15:10 26.4 °C 13.8 °C 1021.6 hPa ESE 14.5 km/h 14.5 km/h 46% 0 mm WeatherDisplay:10.37 W/m2 FEW
15:15 26.2 °C 14.1 °C 1021.6 hPa East 11.3 km/h 14.5 km/h 47% 0 mm WeatherDisplay:10.37 W/m2 FEW
15:20 26.1 °C 13.8 °C 1021.6 hPa ENE 11.3 km/h 11.3 km/h 47% 0 mm WeatherDisplay:10.37 W/m2 FEW
15:25 26.1 °C 14.8 °C 1021.6 hPa ENE 11.3 km/h 11.3 km/h 50% 0 mm WeatherDisplay:10.37 W/m2 FEW
15:30 26 °C 14.4 °C 1021.2 hPa ENE 11.3 km/h 11.3 km/h 49% 0 mm WeatherDisplay:10.37 W/m2 FEW
15:35 26 °C 14.1 °C 1021.2 hPa ENE 11.3 km/h 11.3 km/h 48% 0 mm WeatherDisplay:10.37 W/m2 FEW
15:40 25.8 °C 14.3 °C 1021.2 hPa ENE 11.3 km/h 11.3 km/h 49% 0 mm WeatherDisplay:10.37 W/m2 FEW
15:45 25.8 °C 13.9 °C 1021.2 hPa ENE 11.3 km/h 11.3 km/h 48% 0 mm WeatherDisplay:10.37 W/m2 FEW
15:50 25.8 °C 14.6 °C 1021.2 hPa ENE 11.3 km/h 11.3 km/h 50% 0 mm WeatherDisplay:10.37 W/m2 FEW
16:00 25.8 °C 14.6 °C 1021.2 hPa ENE 11.3 km/h 11.3 km/h 50% 0 mm WeatherDisplay:10.37 W/m2 FEW
16:05 25.9 °C 14.7 °C 1021.2 hPa ENE 11.3 km/h 11.3 km/h 50% 0 mm WeatherDisplay:10.37 W/m2 FEW
16:10 26.1 °C 14.9 °C 1021.2 hPa ENE 11.3 km/h 11.3 km/h 50% 0 mm WeatherDisplay:10.37 W/m2 FEW
16:15 26.4 °C 15.2 °C 1021.2 hPa NE 9.7 km/h 11.3 km/h 50% 0 mm WeatherDisplay:10.37 W/m2 SCT
16:20 26.2 °C 14.3 °C 1021.2 hPa NNE 9.7 km/h 9.7 km/h 48% 0 mm WeatherDisplay:10.37 W/m2 SCT
16:25 25.8 °C 14 °C 1020.9 hPa NNE 9.7 km/h 9.7 km/h 48% 0 mm WeatherDisplay:10.37 W/m2 SCT
16:30 25.6 °C 14.1 °C 1020.9 hPa NNE 9.7 km/h 9.7 km/h 49% 0 mm WeatherDisplay:10.37 W/m2 SCT
16:35 25.4 °C 14.2 °C 1020.9 hPa NNE 9.7 km/h 9.7 km/h 50% 0 mm WeatherDisplay:10.37 W/m2 SCT
16:40 25.3 °C 15.3 °C 1020.9 hPa NNE 9.7 km/h 9.7 km/h 54% 0 mm WeatherDisplay:10.37 W/m2 SCT
16:45 25.2 °C 14.7 °C 1020.9 hPa NNW 9.7 km/h 9.7 km/h 52% 0 mm WeatherDisplay:10.37 W/m2 CLR
16:50 25.4 °C 14.8 °C 1020.9 hPa WNW 9.7 km/h 9.7 km/h 52% 0 mm WeatherDisplay:10.37 W/m2 CLR
16:55 25.4 °C 13.9 °C 1020.9 hPa NNW 9.7 km/h 9.7 km/h 49% 0 mm WeatherDisplay:10.37 W/m2 SCT
17:00 25.4 °C 14.5 °C 1020.9 hPa NNE 9.7 km/h 9.7 km/h 51% 0 mm WeatherDisplay:10.37 W/m2 SCT
17:05 25.2 °C 14.7 °C 1020.9 hPa NNE 9.7 km/h 9.7 km/h 52% 0 mm WeatherDisplay:10.37 W/m2 SCT
17:10 25.2 °C 14.9 °C 1020.5 hPa NNE 9.7 km/h 9.7 km/h 53% 0 mm WeatherDisplay:10.37 W/m2 SCT
17:15 25.2 °C 15 °C 1020.5 hPa ENE 11.3 km/h 11.3 km/h 53% 0 mm WeatherDisplay:10.37 W/m2 BKN
17:20 25.3 °C 14.4 °C 1020.5 hPa East 11.3 km/h 11.3 km/h 51% 0 mm WeatherDisplay:10.37 W/m2 BKN
17:25 25.4 °C 15.1 °C 1020.5 hPa East 11.3 km/h 11.3 km/h 53% 0 mm WeatherDisplay:10.37 W/m2 BKN
17:30 25.3 °C 15.1 °C 1020.5 hPa East 11.3 km/h 11.3 km/h 53% 0 mm WeatherDisplay:10.37 W/m2 BKN
17:40 25.1 °C 14.8 °C 1020.5 hPa East 11.3 km/h 11.3 km/h 53% 0 mm WeatherDisplay:10.37 W/m2 BKN
17:45 24.9 °C 15 °C 1020.5 hPa East 11.3 km/h 11.3 km/h 54% 0 mm WeatherDisplay:10.37 W/m2 BKN
17:50 24.8 °C 15.1 °C 1020.5 hPa East 11.3 km/h 11.3 km/h 55% 0 mm WeatherDisplay:10.37 W/m2 BKN
17:55 24.4 °C 15.4 °C 1020.5 hPa East 11.3 km/h 11.3 km/h 57% 0 mm WeatherDisplay:10.37 W/m2 BKN
18:00 24.2 °C 15.2 °C 1020.5 hPa East 11.3 km/h 11.3 km/h 57% 0 mm WeatherDisplay:10.37 W/m2 BKN
18:05 24.1 °C 15.3 °C 1020.5 hPa East 11.3 km/h 11.3 km/h 58% 0 mm WeatherDisplay:10.37 W/m2 BKN
18:10 23.9 °C 15.2 °C 1020.5 hPa East 11.3 km/h 11.3 km/h 58% 0 mm WeatherDisplay:10.37 W/m2 BKN
18:15 23.8 °C 15.1 °C 1020.5 hPa East 4.8 km/h 11.3 km/h 58% 0 mm WeatherDisplay:10.37 W/m2 SCT
18:20 23.7 °C 15.4 °C 1020.9 hPa East 4.8 km/h 4.8 km/h 60% 0 mm WeatherDisplay:10.37 W/m2 SCT
18:25 23.4 °C 15.5 °C 1020.5 hPa East 4.8 km/h 4.8 km/h 61% 0 mm WeatherDisplay:10.37 W/m2 SCT
18:30 23.2 °C 15.3 °C 1020.9 hPa East 4.8 km/h 4.8 km/h 61% 0 mm WeatherDisplay:10.37 W/m2 SCT
18:35 23 °C 15.3 °C 1020.9 hPa East 4.8 km/h 4.8 km/h 62% 0 mm WeatherDisplay:10.37 W/m2 SCT
18:40 22.8 °C 15.4 °C 1020.9 hPa East 4.8 km/h 4.8 km/h 63% 0 mm WeatherDisplay:10.37 W/m2 SCT
18:45 22.6 °C 15.4 °C 1020.9 hPa East 4.8 km/h 4.8 km/h 64% 0 mm WeatherDisplay:10.37 W/m2 SCT
18:55 22.3 °C 15.3 °C 1020.9 hPa East 4.8 km/h 4.8 km/h 65% 0 mm WeatherDisplay:10.37 W/m2 SCT
19:00 22.1 °C 15.2 °C 1020.9 hPa East 4.8 km/h 4.8 km/h 65% 0 mm WeatherDisplay:10.37 W/m2 SCT
19:05 22 °C 15.1 °C 1020.5 hPa East 4.8 km/h 4.8 km/h 65% 0 mm WeatherDisplay:10.37 W/m2 SCT
19:10 21.9 °C 15.3 °C 1020.5 hPa East 4.8 km/h 4.8 km/h 66% 0 mm WeatherDisplay:10.37 W/m2 SCT
19:15 21.8 °C 15.4 °C 1020.5 hPa ENE 4.8 km/h 4.8 km/h 67% 0 mm WeatherDisplay:10.37 W/m2 FEW
19:20 21.6 °C 15.4 °C 1020.9 hPa ENE 4.8 km/h 4.8 km/h 68% 0 mm WeatherDisplay:10.37 W/m2 FEW
19:30 21.3 °C 15.2 °C 1020.9 hPa ENE 4.8 km/h 4.8 km/h 68% 0 mm WeatherDisplay:10.37 W/m2 FEW
19:35 21.2 °C 15.3 °C 1020.9 hPa ENE 4.8 km/h 4.8 km/h 69% 0 mm WeatherDisplay:10.37 W/m2 FEW
19:40 21.1 °C 15.4 °C 1020.5 hPa ENE 4.8 km/h 4.8 km/h 70% 0 mm WeatherDisplay:10.37 W/m2 FEW
19:45 20.9 °C 15.2 °C 1020.9 hPa ENE 4.8 km/h 4.8 km/h 70% 0 mm WeatherDisplay:10.37 W/m2 FEW
19:50 20.8 °C 15.1 °C 1020.9 hPa ENE 4.8 km/h 4.8 km/h 70% 0 mm WeatherDisplay:10.37 W/m2 FEW
19:55 20.7 °C 15 °C 1020.9 hPa ENE 4.8 km/h 4.8 km/h 70% 0 mm WeatherDisplay:10.37 W/m2 FEW
20:05 20.4 °C 15 °C 1020.9 hPa ENE 4.8 km/h 4.8 km/h 71% 0 mm WeatherDisplay:10.37 W/m2 FEW
20:10 20.3 °C 14.9 °C 1020.9 hPa ENE 4.8 km/h 4.8 km/h 71% 0 mm WeatherDisplay:10.37 W/m2 FEW
20:15 20.3 °C 15.1 °C 1020.9 hPa ENE 4.8 km/h 4.8 km/h 72% 0 mm WeatherDisplay:10.37 W/m2 SCT
20:20 20.2 °C 15.2 °C 1020.9 hPa East 4.8 km/h 4.8 km/h 73% 0 mm WeatherDisplay:10.37 W/m2 SCT
20:25 20.1 °C 15.3 °C 1021.2 hPa East 4.8 km/h 4.8 km/h 74% 0 mm WeatherDisplay:10.37 W/m2 SCT
20:30 19.9 °C 15.1 °C 1021.2 hPa East 4.8 km/h 4.8 km/h 74% 0 mm WeatherDisplay:10.37 W/m2 SCT
20:35 19.7 °C 14.9 °C 1021.2 hPa East 4.8 km/h 4.8 km/h 74% 0 mm WeatherDisplay:10.37 W/m2 SCT
20:40 19.6 °C 15.3 °C 1021.2 hPa East 4.8 km/h 4.8 km/h 76% 0 mm WeatherDisplay:10.37 W/m2 SCT
20:45 19.4 °C 15.1 °C 1021.2 hPa East 4.8 km/h 4.8 km/h 76% 0 mm WeatherDisplay:10.37 W/m2 SCT
20:50 19.3 °C 15.2 °C 1021.2 hPa East 4.8 km/h 4.8 km/h 77% 0 mm WeatherDisplay:10.37 W/m2 SCT
21:00 19.1 °C 15.3 °C 1021.2 hPa East 4.8 km/h 4.8 km/h 79% 0 mm WeatherDisplay:10.37 W/m2 SCT
21:05 19.1 °C 14.9 °C 1021.2 hPa East 4.8 km/h 4.8 km/h 77% 0 mm WeatherDisplay:10.37 W/m2 SCT
21:10 19 °C 15.1 °C 1021.2 hPa East 4.8 km/h 4.8 km/h 78% 0 mm WeatherDisplay:10.37 W/m2 SCT
21:15 18.9 °C 15.2 °C 1021.2 hPa East 4.8 km/h 4.8 km/h 79% 0 mm WeatherDisplay:10.37 W/m2 SCT
21:20 18.8 °C 15.1 °C 1021.2 hPa East 4.8 km/h 4.8 km/h 79% 0 mm WeatherDisplay:10.37 W/m2 SCT
21:25 18.7 °C 15.2 °C 1021.2 hPa East 4.8 km/h 4.8 km/h 80% 0 mm WeatherDisplay:10.37 W/m2 SCT
21:35 18.4 °C 15.1 °C 1021.2 hPa East 4.8 km/h 4.8 km/h 81% 0 mm WeatherDisplay:10.37 W/m2 SCT
21:40 18.3 °C 15 °C 1021.2 hPa East 4.8 km/h 4.8 km/h 81% 0 mm WeatherDisplay:10.37 W/m2 SCT
21:45 18.3 °C 14.9 °C 1021.2 hPa East 4.8 km/h 4.8 km/h 81% 0 mm WeatherDisplay:10.37 W/m2 SCT
21:50 18.2 °C 14.9 °C 1021.2 hPa East 4.8 km/h 4.8 km/h 81% 0 mm WeatherDisplay:10.37 W/m2 SCT
21:55 18.1 °C 15 °C 1021.6 hPa East 4.8 km/h 4.8 km/h 82% 0 mm WeatherDisplay:10.37 W/m2 SCT
22:00 18.1 °C 14.9 °C 1021.2 hPa East 4.8 km/h 4.8 km/h 82% 0 mm WeatherDisplay:10.37 W/m2 SCT
22:05 18 °C 14.9 °C 1021.2 hPa East 4.8 km/h 4.8 km/h 82% 0 mm WeatherDisplay:10.37 W/m2 SCT
22:10 17.9 °C 14.8 °C 1021.2 hPa East 4.8 km/h 4.8 km/h 82% 0 mm WeatherDisplay:10.37 W/m2 SCT
22:15 17.8 °C 14.7 °C 1021.2 hPa East 4.8 km/h 4.8 km/h 82% 0 mm WeatherDisplay:10.37 W/m2 FEW
22:20 17.8 °C 14.7 °C 1021.2 hPa East 4.8 km/h 4.8 km/h 82% 0 mm WeatherDisplay:10.37 W/m2 FEW
22:25 17.8 °C 14.8 °C 1021.2 hPa East 4.8 km/h 4.8 km/h 83% 0 mm WeatherDisplay:10.37 W/m2 FEW
22:30 17.7 °C 14.7 °C 1021.2 hPa East 4.8 km/h 4.8 km/h 83% 0 mm WeatherDisplay:10.37 W/m2 FEW
22:40 17.5 °C 14.8 °C 1021.2 hPa East 4.8 km/h 4.8 km/h 84% 0 mm WeatherDisplay:10.37 W/m2 FEW
22:45 17.4 °C 14.7 °C 1021.2 hPa East 4.8 km/h 4.8 km/h 84% 0 mm WeatherDisplay:10.37 W/m2 FEW
22:50 17.4 °C 14.7 °C 1021.2 hPa East 4.8 km/h 4.8 km/h 84% 0 mm WeatherDisplay:10.37 W/m2 FEW
22:55 17.4 °C 14.7 °C 1021.2 hPa East 4.8 km/h 4.8 km/h 84% 0 mm WeatherDisplay:10.37 W/m2 FEW
23:00 17.3 °C 14.6 °C 1021.2 hPa East 4.8 km/h 4.8 km/h 84% 0 mm WeatherDisplay:10.37 W/m2 FEW
23:10 17.3 °C 14.8 °C 1021.2 hPa East 4.8 km/h 4.8 km/h 85% 0 mm WeatherDisplay:10.37 W/m2 FEW
23:20 17.4 °C 14.7 °C 1021.2 hPa East 4.8 km/h 4.8 km/h 84% 0 mm WeatherDisplay:10.37 W/m2 FEW
23:25 17.2 °C 14.5 °C 1021.2 hPa East 4.8 km/h 4.8 km/h 84% 0 mm WeatherDisplay:10.37 W/m2 FEW
23:30 17.2 °C 14.6 °C 1021.2 hPa East 4.8 km/h 4.8 km/h 85% 0 mm WeatherDisplay:10.37 W/m2 FEW
23:40 17.2 °C 14.6 °C 1021.2 hPa East 4.8 km/h 4.8 km/h 85% 0 mm WeatherDisplay:10.37 W/m2 FEW
23:45 17.3 °C 14.8 °C 1021.2 hPa East 4.8 km/h 4.8 km/h 85% 0 mm WeatherDisplay:10.37 W/m2 FEW
23:50 17.4 °C 14.9 °C 1021.2 hPa East 4.8 km/h 4.8 km/h 85% 0 mm WeatherDisplay:10.37 W/m2 FEW
23:55 17.5 °C 14.9 °C 1021.2 hPa East 4.8 km/h 4.8 km/h 85% 0 mm WeatherDisplay:10.37 W/m2 FEW
Piedmont Bend
Compliments of Weather Underground - 4 mb